Location: Cheyres
(46.8153°N, 6.7877°E)
Time: 15:26:25
(UTC+00:00)

Cosmos 990 Rocket - Pass Details

Date: 24 September 2021
Orbit: 746 x 769 km, 74.0° (Epoch: 24 October)

Event Time Altitude Azimuth Distance (km) Brightness Sun altitude
Exits shadow 19:57:50 22° 36° (NE) 1,603 5.6 -25.7°
Drops below altitude 10° 19:59:43 10° 29° (NNE) 2,292 6.5 -26.0°
Sets 20:02:08 0° 26° (NNE) 3,226 7.3 -26.4°
